Hourly Data Report for July 18, 2021

VINELAND STATION RCS
ONTARIO
Current Station Operator: ECCC - MSC

43°11'00.000" N
79°24'00.000" W
79.20 m
6139148
71171
XVN

Download Data

Hourly Data (July 2021)
Hourly Data Report for July 18, 2021
TIME
LST
Temp Definition
°C
Dew Point Definition
°C
Rel Hum Definition
%
Precip. Amount Definition
mm

Wind Dir Definition
10's deg

Wind Spd Definition
km/h
Visibility Definition
km
Stn Press Definition
kPa
Hmdx Definition


Wind Chill Definition


Weather Definition


00:00 19.0 17.0 88 LegendMM 35 5   100.84     LegendNANA
01:00 19.1 17.4 90 LegendMM 27 5   100.86     LegendNANA
02:00 18.6 17.1 91 LegendMM 26 6   100.84     LegendNANA
03:00 19.1 16.4 84 LegendMM 27 8   100.84     LegendNANA
04:00 19.5 16.0 80 LegendMM 29 7   100.88     LegendNANA
05:00 19.1 16.0 82 LegendMM 27 7   100.93     LegendNANA
06:00 19.7 15.9 79 LegendMM 29 9   100.94     LegendNANA
07:00 20.7 16.0 75 LegendMM 28 7   100.98 25   LegendNANA
08:00 21.0 15.8 72 LegendMM 29 8   100.98 25   LegendNANA
09:00 21.8 15.7 68 LegendMM 29 10   101.00 26   LegendNANA
10:00 22.6 16.0 66 LegendMM 31 9   100.98 27   LegendNANA
11:00 22.8 16.1 66 LegendMM 32 7   100.96 27   LegendNANA
12:00 23.6 16.3 64 LegendMM 35 6   100.95 28   LegendNANA
13:00 23.2 17.0 68 LegendMM 29 5   100.92 28   LegendNANA
14:00 26.4 17.5 58 LegendMM 24 4   100.86 32   LegendNANA
15:00 28.3 20.0 61 LegendMM 35 4   100.83 36   LegendNANA
16:00 28.7 18.6 54 LegendMM 36 2   100.78 35   LegendNANA
17:00 28.8 16.6 48 LegendMM 0 1   100.78 34   LegendNANA
18:00 28.3 15.1 44 LegendMM 34 3   100.78 32   LegendNANA
19:00 26.0 18.7 64 LegendMM 25 4   100.81 33   LegendNANA
20:00 24.1 16.3 62 LegendMM 35 9   100.81 29   LegendNANA
21:00 23.1 17.4 70 LegendMM 34 7   100.83 29   LegendNANA
22:00 21.8 15.9 69 LegendMM 26 4   100.83 26   LegendNANA
23:00 19.7 15.9 79 LegendMM 16 3   100.86     LegendNANA

Notes on Data Quality.

Legend

  • E = Estimated
  • M = Missing
  • NA = Not Available*
  • [empty] = Indicates an unobserved value
Date modified: